DW7875 Weather Reports


Display with metric or nautical units.
time (UTC)temp
F
wind
direction
speed
MPH
gust
MPH
rain 1hr
in
rain 24hr
in
rain mn
in
humidity
%
barometer
mb
20260831004509 80 165 0.0 2.0 0.00 0.00 0.00 70 1018.4
20260831003010 80 163 0.0 2.0 0.00 0.00 0.00 72 1018.3
20260831001507 80 162 0.0 2.0 0.00 0.00 0.00 72 1018.3
20260831000007 80 162 0.0 2.0 0.00 0.00 0.00 72 1018.1
20260830234507 80 163 0.0 2.0 0.00 0.00 0.00 71 1018.0
20260830233005 81 163 1.0 2.0 0.00 0.00 0.00 70 1018.0
20260830231513 81 164 0.0 2.0 0.00 0.00 0.00 70 1018.2
20260830230007 81 164 0.0 2.0 0.00 0.00 0.00 70 1018.2
20260830224506 81 167 0.0 2.0 0.00 0.00 0.00 70 1018.0
20260830223004 81 167 0.0 3.0 0.00 0.00 0.00 69 1017.9
20260830221503 82 146 0.0 2.0 0.00 0.00 0.00 69 1017.9
20260830220003 83 146 0.0 3.0 0.00 0.00 0.00 68 1018.1
20260830214503 83 144 1.0 3.0 0.00 0.00 0.00 67 1017.9
20260830213003 85 124 1.0 5.0 0.00 0.00 0.00 65 1017.8
20260830211502 86 141 1.0 4.0 0.00 0.00 0.00 64 1017.7
20260830210000 87 136 2.0 4.0 0.00 0.00 0.00 63 1017.7
20260830204603 88 139 1.0 3.0 0.00 0.00 0.00 63 1017.9
20260830203107 88 140 1.0 3.0 0.00 0.00 0.00 61 1018.0
20260830201602 89 135 1.0 4.0 0.00 0.00 0.00 59 1017.9
20260830200056 90 140 1.0 4.0 0.00 0.00 0.00 55 1018.0
20260830194555 91 131 2.0 7.0 0.00 0.00 0.00 50 1018.2
20260830193052 90 190 1.0 3.0 0.00 0.00 0.00 52 1018.4
20260830191548 89 141 1.0 4.0 0.00 0.00 0.00 54 1018.7
20260830190046 88 354 0.0 5.0 0.00 0.00 0.00 53 1019.2
20260830184548 88 143 1.0 7.0 0.00 0.00 0.00 53 1019.3
20260830183047 88 98 2.0 6.0 0.00 0.00 0.00 52 1019.5
20260830181541 89 224 1.0 6.0 0.00 0.00 0.00 53 1019.7
20260830180039 88 236 1.0 4.0 0.00 0.00 0.00 51 1019.9
20260830174541 88 110 2.0 4.0 0.00 0.00 0.00 54 1020.0
20260830173034 88 155 1.0 5.0 0.00 0.00 0.00 53 1020.1
20260830171531 88 222 2.0 4.0 0.00 0.00 0.00 57 1020.5
20260830170028 87 194 2.0 5.0 0.00 0.00 0.00 64 1020.7
20260830164534 86 314 1.0 5.0 0.00 0.00 0.00 67 1020.8
20260830163023 86 220 1.0 4.0 0.00 0.00 0.00 65 1021.0
20260830161528 85 143 1.0 6.0 0.00 0.00 0.00 67 1021.1
20260830160022 85 53 1.0 9.0 0.00 0.00 0.00 67 1021.1
20260830154517 84 96 2.0 8.0 0.00 0.00 0.00 67 1021.1
20260830153017 84 153 2.0 9.0 0.00 0.00 0.00 69 1021.1
20260830151515 84 218 1.0 5.0 0.00 0.00 0.00 69 1021.2
20260830150012 83 122 1.0 6.0 0.00 0.00 0.00 71 1021.2
20260830144509 82 212 2.0 8.0 0.00 0.00 0.00 71 1021.2
20260830143007 81 114 1.0 8.0 0.00 0.00 0.00 77 1021.3
20260830141501 79 157 2.0 7.0 0.00 0.00 0.00 78 1021.5
20260830140057 77 205 1.0 5.0 0.00 0.00 0.00 79 1021.5
20260830134554 76 206 2.0 5.0 0.00 0.00 0.00 82 1021.6
20260830133053 75 122 2.0 5.0 0.00 0.00 0.00 84 1021.8
20260830131546 74 217 1.0 3.0 0.00 0.00 0.00 86 1022.1
20260830130054 73 197 0.0 5.0 0.00 0.00 0.00 87 1022.2
20260830124539 73 216 1.0 6.0 0.00 0.00 0.00 88 1022.2
20260830123035 72 163 0.0 3.0 0.00 0.00 0.00 88 1022.2
20260830121532 72 215 2.0 7.0 0.00 0.00 0.00 88 1022.4
20260830120029 71 207 0.0 6.0 0.00 0.00 0.00 89 1022.4
20260830114552 70 185 0.0 3.0 0.00 0.00 0.00 89 1022.4
20260830113024 69 207 0.0 0.0 0.00 0.00 0.00 88 1022.5
20260830111524 69 207 0.0 1.0 0.00 0.00 0.00 88 1022.6
20260830110023 69 207 0.0 1.0 0.00 0.00 0.00 88 1022.5
20260830104526 69 207 0.0 1.0 0.00 0.00 0.00 88 1022.4
20260830103022 69 207 0.0 1.0 0.00 0.00 0.00 88 1022.2
20260830101521 69 207 0.0 1.0 0.00 0.00 0.00 88 1022.1
20260830100020 70 207 0.0 1.0 0.00 0.00 0.00 88 1021.9
20260830094520 70 207 0.0 2.0 0.00 0.00 0.00 88 1021.9
20260830093019 70 215 0.0 3.0 0.00 0.00 0.00 88 1021.9
20260830091525 69 217 0.0 1.0 0.00 0.00 0.00 88 1022.0
20260830090020 69 217 0.0 2.0 0.00 0.00 0.00 88 1022.0
20260830084516 68 217 0.0 0.0 0.00 0.00 0.00 87 1021.9
20260830083016 68 217 0.0 1.0 0.00 0.00 0.00 87 1022.0
20260830081515 69 217 0.0 1.0 0.00 0.00 0.00 87 1022.0
20260830080014 69 217 0.0 1.0 0.00 0.00 0.00 87 1021.9
20260830074514 69 217 0.0 1.0 0.00 0.00 0.00 87 1022.0
20260830073013 69 217 0.0 2.0 0.00 0.00 0.00 87 1022.0
20260830071513 69 217 0.0 1.0 0.00 0.00 0.00 87 1022.2
20260830070015 69 217 0.0 1.0 0.00 0.00 0.00 87 1022.2
20260830064508 69 217 2.0 4.0 0.00 0.00 0.00 88 1022.3
20260830063007 69 268 0.0 2.0 0.00 0.00 0.00 88 1022.5
20260830061504 68 269 0.0 0.0 0.00 0.00 0.00 87 1022.6
20260830060003 68 269 0.0 0.0 0.00 0.00 0.00 87 1022.7
20260830054501 68 269 0.0 0.0 0.00 0.00 0.00 87 1022.6
20260830053106 67 269 0.0 0.0 0.00 0.00 0.00 87 1022.6
20260830051602 67 269 0.0 0.0 0.00 0.00 0.00 86 1022.6
20260830050106 66 269 0.0 0.0 0.00 0.00 0.00 85 1022.5
20260830044609 66 269 0.0 0.0 0.00 0.00 0.00 82 1022.6
20260830043107 66 269 0.0 0.0 0.00 0.00 0.00 81 1022.5
20260830041604 66 269 0.0 0.0 0.00 0.00 0.00 80 1022.4
20260830040109 66 269 0.0 0.0 0.00 0.00 0.00 79 1022.4
20260830034549 66 269 0.0 0.0 0.00 0.00 0.00 77 1022.2
20260830033056 66 269 0.0 0.0 0.00 0.00 0.00 77 1022.1
20260830031548 66 269 0.0 0.0 0.00 0.00 0.00 76 1022.1
20260830030048 66 269 0.0 0.0 0.00 0.00 0.00 75 1022.1
20260830024547 66 269 0.0 0.0 0.00 0.00 0.00 73 1022.2
20260830023050 66 269 0.0 0.0 0.00 0.00 0.00 73 1022.1
20260830021546 67 269 0.0 0.0 0.00 0.00 0.00 72 1022.1
20260830014547 67 269 0.0 0.0 0.00 0.00 0.00 70 1021.9
20260830013045 67 269 0.0 0.0 0.00 0.00 0.00 69 1021.9
20260830011556 68 269 0.0 0.0 0.00 0.00 0.00 69 1021.8
20260830010050 68 269 0.0 0.0 0.00 0.00 0.00 67 1021.7